Location: Newark
(34.9500°N, 139.9667°E)
Time: 22:04:36
(UTC+00:00)

Altair - Visible Passes

Search period start: 10 December 2019 00:00
Search period end: 20 December 2019 00:00
Orbit: 1502 x 1682 km, 47.2° (Epoch: 09 December)

Date Brightness Start Highest point End Pass type
(mag) Time Alt. Az. Time Alt. Az. Time Alt. Az.
10 Dec 8.6 08:57:38 10° S 09:04:24 21° SE 09:06:35 20° ESE visible
10 Dec 8.1 10:58:28 10° SW 11:04:39 45° SW 11:04:39 45° SW visible
10 Dec 8.6 17:30:41 33° ESE 17:30:41 33° ESE 17:35:10 10° ESE visible
10 Dec 7.8 19:28:45 38° WSW 19:30:17 40° SW 19:38:42 10° SSE visible
11 Dec 8.8 08:33:07 10° SSE 08:39:20 19° SE 08:43:15 15° E visible
11 Dec 7.6 10:33:20 10° SW 10:41:18 61° SSW 10:41:18 61° SSW visible
11 Dec 9.7 12:38:59 10° W 12:39:22 11° W 12:39:22 11° W visible
11 Dec 9.1 17:07:21 21° ESE 17:07:21 21° ESE 17:09:55 10° ESE visible
11 Dec 7.7 19:05:25 44° SW 19:05:25 44° SW 19:13:48 10° SSE visible
12 Dec 8.9 08:08:43 10° SSE 08:14:16 17° SE 08:19:43 10° E visible
12 Dec 7.4 10:08:13 10° SW 10:17:51 67° SE 10:17:57 67° SE visible
12 Dec 9.3 12:13:38 10° W 12:16:00 19° W 12:16:00 19° W visible
12 Dec 9.6 16:44:03 12° ESE 16:44:03 12° ESE 16:44:40 10° ESE visible
12 Dec 7.9 18:42:06 43° SSW 18:42:06 43° SSW 18:48:51 10° SSE visible
13 Dec 7.5 09:43:07 10° SW 09:52:43 62° SE 09:54:33 54° E visible
13 Dec 8.9 11:48:16 10° W 11:52:36 29° W 11:52:36 29° W visible
13 Dec 8.3 18:18:48 35° S 18:18:48 35° S 18:23:53 10° SSE visible
13 Dec 9.0 20:17:07 10° WSW 20:18:14 10° WSW 20:19:21 10° SW visible
14 Dec 7.6 09:18:03 10° SSW 09:27:34 57° SE 09:31:06 39° E visible
14 Dec 8.4 11:22:55 10° WSW 11:29:09 41° W 11:29:09 41° W visible
14 Dec 8.8 17:55:30 25° SSE 17:55:30 25° SSE 17:58:52 10° SSE visible
14 Dec 9.0 19:53:34 12° SW 19:53:34 12° SW 19:56:28 10° SW visible
15 Dec 7.8 08:53:01 10° SSW 09:02:26 52° SE 09:07:38 27° ENE visible
15 Dec 7.9 10:57:35 10° WSW 11:05:41 55° WNW 11:05:41 55° WNW visible
15 Dec 9.2 17:32:12 17° SSE 17:32:12 17° SSE 17:33:51 10° SE visible
15 Dec 9.0 19:30:16 13° SW 19:30:16 13° SW 19:32:34 10° SSW visible
16 Dec 7.9 08:28:00 10° SSW 08:37:19 48° SE 08:44:06 19° ENE visible
16 Dec 7.6 10:32:15 10° WSW 10:41:56 64° NNW 10:42:08 64° NNW visible
16 Dec 9.6 12:39:23 10° WNW 12:40:12 13° WNW 12:40:12 13° WNW visible
16 Dec 9.1 19:06:57 13° SSW 19:06:57 13° SSW 19:08:22 10° SSW visible
17 Dec 8.1 08:03:02 10° SSW 08:12:12 44° SE 08:20:33 12° ENE visible
17 Dec 7.6 10:06:57 10° WSW 10:16:42 68° NNW 10:18:35 57° NNE visible
17 Dec 9.3 12:14:00 10° WNW 12:16:37 19° WNW 12:16:37 19° WNW visible
17 Dec 9.3 18:43:37 11° SSW 18:43:37 11° SSW 18:43:59 10° SSW visible
18 Dec 7.6 09:41:39 10° WSW 09:51:29 72° NNW 09:54:59 44° NE visible
18 Dec 8.9 11:48:37 10° WNW 11:53:01 27° WNW 11:53:01 27° WNW visible
19 Dec 7.6 09:16:23 10° WSW 09:26:16 77° NNW 09:31:21 33° NE visible
19 Dec 8.6 11:23:13 10° WNW 11:29:23 34° NW 11:29:23 34° NW visible
